Regional Weather Roundup
Issued by NWS Jackson, KY

Home | Current Version | Previous Version | Text Only | Print | Product List | Glossary Off
Versions: 1 2 3 4 5 6 7 8 9 10 11 12 13 14 15 16 17 18 19 20 21 22 23 24 25 26 27 28 29 30 31 32 33 34 35 36 37 38 39 40 41 42 43 44 45 46 47 48 49 50

000
ASUS43 KJKL 040710
RWRJKL

EAST KENTUCKY HOURLY WEATHER ROUNDUP
NATIONAL WEATHER SERVICE JACKSON KY
300 AM EDT SAT JUL 04 2015

NOTE: "FAIR" INDICATES FEW OR NO CLOUDS BELOW 12,000 FEET WITH
NO SIGNIFICANT WEATHER AND/OR OBSTRUCTIONS TO VISIBILITY.

* THESE REPORTS ARE NOT UNDER NWS QUALITY CONTROL AND MAY NOT
  REPORT WEATHER SUCH AS PRECIPITATION AND FOG.

KYZ079-080-083-085-087-088-110-112-115-119-120-040800
...EASTERN KENTUCKY...

CITY           SKY/WX    TMP DP  RH WIND       PRES   REMARKS
JACKSON        LGT RAIN  67  66  97 CALM      29.93S VSB 3/4
LONDON         CLOUDY    69  65  86 SW7       29.93S
SOMERSET*      LGT RAIN  68  68 100 SW6       29.94S
MONTICELLO*    CLOUDY    70  70 100 CALM      29.96R
MIDDLESBORO*   MOCLDY    67  67  99 S3        29.94F
HARLAN APT*      N/A     68  68 100 N5        29.95F
HAZARD APT*    CLOUDY    68  68 100 SW3       29.93F
BLACK MTN*       N/A     61  61 100 SW3         N/A
PIKEVILLE APT* CLOUDY    66  66 100 CALM      29.93F
BIG SANDY*     CLOUDY    68  67  98 SW3       29.92S
MOREHEAD APT*  CLOUDY    68  66  94 CALM      29.92F FOG
$$

KYZ035-036-041-042-044-050-067-078-099-040800
...CENTRAL KENTUCKY...

CITY           SKY/WX    TMP DP  RH WIND       PRES   REMARKS
MT STERLING*   CLOUDY    68  68 100 W3        29.92S
FLEMING/MASON* CLOUDY    64  64 100 CALM      29.91F FOG
DANVILLE*      CLOUDY    66  64  94 SW3       29.93S
RICHMOND*      CLOUDY    68  66  94 SW5       29.92S
LEXINGTON      CLOUDY    68  67  96 W3        29.92S FOG
FRANKFORT      CLOUDY    68  66  93 N3        29.91R FOG
$$

KYZ091>093-OHZ055-061-077-WVZ005-015-034-035-042-040800
...SOUTHERN OHIO/WEST VIRGINIA...

CITY           SKY/WX    TMP DP  RH WIND       PRES   REMARKS
COVINGTON      CLOUDY    68  64  87 N6        29.92S FOG
COLUMBUS       CLOUDY    64  61  90 N6        29.90R
DAYTON         PTCLDY    63  61  93 N5        29.94R
WILMINGTON     MOCLDY    64  62  93 NW5       29.92R FOG
HUNTINGTON     LGT RAIN  67  67 100 CALM      29.89R VSB 1
CHARLESTON     HVY RAIN  69  67  93 W6        29.89R
PINEVILLE*     CLOUDY    67  67 100 MISG      29.98S FOG
BECKLEY        CLOUDY    66  63  90 SW6       29.96S
BLUEFIELD      CLOUDY    67  62  84 SW9       29.99S
$$

VAZ002-007-008-TNZ017-027-036-066-071-040800
...SOUTHWEST VIRGINIA/EAST TENNESSEE...

CITY           SKY/WX    TMP DP  RH WIND       PRES   REMARKS
WISE*          CLOUDY    64  64 100 SW5       30.00S
JONESVILLE*      N/A    N/A N/A N/A MISG        N/A
ABINGDON*      RAIN      68  68 100 W7G17     29.97F
BRISTOL        CLOUDY    69  65  86 SW12      29.96S
KNOXVILLE      PTCLDY    69  66  90 S10       29.95S
OAK RIDGE      CLOUDY    70  66  87 CALM      29.96F
CROSSVILLE     CLOUDY    68  64  87 VRB5      29.99F
NASHVILLE      MOCLDY    70  69  97 S3        29.92F
$$

...KEY TO REMARKS...
VSB - VISIBILITY IN MILES
WCI - WIND CHILL INDEX
HX  - HEAT INDEX

$$


USA.gov is the U.S. government's official web portal to all federal, state and local government web resources and services.